RH
75 67 91 88 89 88 88 88 88 87 87 85 83 81 82 80 80 82 80 77 74 67 68 70 72 74 76 78 80 81 81 83 84 82 79 72 68 67 68 76 76 47 77
72 72 93 88 90 88 87 88 88 88 86 82 81 80 81 79 77 76 76 74 71 66 67 69 70 72 74 76 78 78 78 80 83 82 78 66 65 72 70 77 80 59 76
77 73 69 88 90 87 86 88 89 86 82 82 80 78 77 76 75 73 75 74 69 63 62 62 63 63 65 67 67 66 68 73 76 78 75 51 50 77 71 77 79 76 74
75 71 66 89 90 88 88 90 88 84 83 82 79 77 75 73 72 73 72 74 68 59 57 56 57 60 64 67 68 69 70 72 73 70 49 55 55 73 72 71 72 73 73
78 72 70 90 92 90 91 91 89 89 89 87 82 76 73 70 69 71 72 72 62 57 56 56 58 62 66 70 71 72 72 74 74 53 46 60 58 67 78 74 69 71 77
75 73 87 94 93 92 92 92 93 93 93 90 85 77 72 68 67 69 71 68 61 62 62 62 64 67 70 75 74 72 75 76 67 44 50 62 62 78 74 77 80 77 78
76 73 76 96 94 93 93 93 94 94 93 90 86 82 75 70 68 68 70 68 66 66 65 66 69 70 72 77 75 74 78 78 46 42 44 53 61 75 70 70 78 78 76
80 81 77 93 96 95 95 95 94 92 92 90 88 84 77 75 74 71 70 69 69 70 71 71 72 73 74 76 78 82 81 79 39 35 41 43 70 72 70 69 79 82 81
77 80 81 77 85 97 96 96 94 92 91 90 88 86 84 81 77 76 75 72 69 74 75 75 76 78 76 79 80 84 83 70 37 34 32 32 68 65 66 70 73 76 78
79 80 79 79 76 80 80 96 94 92 91 89 87 85 83 79 77 76 75 76 77 77 76 77 81 82 83 85 84 85 85 68 39 34 31 31 66 58 56 62 70 72 74
85 83 80 81 83 86 79 80 87 89 89 88 82 83 79 60 60 61 77 81 82 82 84 84 84 86 87 81 82 85 81 43 45 37 34 58 61 57 55 62 73 77 76
84 84 85 87 88 86 72 75 74 67 64 66 66 70 64 71 67 66 76 85 84 86 83 82 83 84 72 50 45 60 45 52 46 45 38 64 63 58 55 61 67 70 72
74 77 82 86 88 83 72 71 66 66 67 68 74 74 73 72 74 67 65 57 61 66 51 55 54 50 58 53 50 52 49 47 44 41 46 70 68 64 61 59 61 64 68
81 80 85 85 84 82 70 70 69 65 68 69 71 77 76 70 70 66 52 55 59 56 57 54 50 59 56 53 52 52 49 41 35 34 42 72 71 69 68 68 68 68 66
72 72 77 79 78 77 77 72 72 74 73 76 74 77 71 66 65 60 61 55 54 51 50 50 50 49 49 46 46 45 41 42 40 33 38 75 73 70 67 67 68 70 70
60 65 73 75 73 70 72 77 84 88 88 92 93 89 83 68 69 61 55 49 49 50 50 48 51 45 44 42 42 45 42 40 43 43 35 45 66 64 64 64 63 63 63
56 62 77 82 78 79 80 87 90 86 86 90 88 84 80 72 62 56 52 52 54 52 52 49 48 45 43 38 39 36 37 39 40 50 45 43 41 60 62 62 61 60 59
60 69 80 80 83 86 90 94 87 86 87 78 83 77 66 60 60 61 54 56 54 50 52 48 44 40 42 41 40 36 38 33 42 55 47 44 42 38 48 60 59 58 57
68 78 83 85 83 88 95 88 86 81 82 63 66 60 60 57 60 56 52 55 56 49 50 45 45 47 44 40 30 33 32 28 42 44 50 49 51 46 40 48 54 52 57
79 80 83 83 82 84 85 74 74 75 67 58 54 48 48 46 52 50 50 55 49 47 49 46 48 44 46 47 30 33 33 35 46 48 45 42 46 49 44 45 41 38 52
79 78 77 83 74 67 56 68 67 68 60 51 44 49 49 47 48 52 48 50 50 49 53 52 46 47 39 50 40 34 33 47 52 43 45 44 46 43 47 44 40 37 34
74 72 74 72 59 51 57 59 58 57 54 46 46 50 48 51 49 48 54 50 52 48 56 57 53 44 47 59 47 40 34 31 37 44 40 44 50 48 46 46 49 47 43
80 70 55 54 54 54 57 52 52 56 55 50 44 43 47 49 46 50 54 52 53 54 55 62 62 61 51 53 67 50 45 40 49 39 44 42 53 47 46 46 47 47 50
57 56 50 49 46 47 50 48 53 48 49 53 46 43 42 50 48 45 51 56 61 60 64 61 57 58 52 47 43 49 53 55 50 47 37 41 44 42 49 49 48 50 52
49 50 52 52 50 52 54 56 53 57 52 46 47 52 53 53 53 51 54 60 63 59 64 63 57 52 46 43 43 45 47 45 46 59 48 41 38 37 41 42 48 48 46
51 56 56 48 48 50 50 53 56 54 50 46 50 52 52 53 53 58 57 62 63 62 59 57 59 53 51 48 44 45 42 44 43 51 54 44 42 35 34 38 43 40 37
Wind_Speed
10 13 14 16 15 15 16 15 14 14 15 15 14 13 12 13 13 12 12 12 12 13 14 13 14 14 14 15 16 16 15 15 14 13 13 11 11 9 8 10 11 11 9
14 13 11 16 15 16 16 15 14 14 14 15 14 13 12 14 13 13 12 12 12 13 14 15 15 15 16 16 16 15 15 15 15 14 13 9 10 9 9 11 10 11 9
15 14 14 15 15 16 16 14 14 14 14 13 13 12 13 12 12 12 12 11 12 13 14 13 14 13 14 14 14 14 14 14 14 14 11 7 7 12 12 10 10 10 9
15 13 13 15 15 15 15 14 14 14 13 13 12 12 11 11 12 12 11 10 11 13 13 13 13 13 13 13 13 14 13 12 12 11 7 9 7 10 11 11 12 10 8
16 14 13 14 14 14 14 13 13 12 11 11 11 11 11 11 11 11 10 9 11 11 12 12 12 11 11 11 11 10 11 10 10 7 8 8 6 8 11 12 11 8 10
13 13 13 12 13 13 13 12 12 11 10 10 9 10 10 11 11 10 9 8 11 11 12 11 11 10 9 8 10 10 9 9 6 8 8 8 7 9 12 12 11 10 9
11 11 13 11 12 13 12 12 11 10 9 9 8 8 8 9 9 8 8 8 9 10 10 10 10 9 8 8 10 10 10 7 8 8 8 8 7 10 11 12 10 9 9
12 11 11 10 11 11 11 10 10 9 9 8 8 7 8 8 7 8 7 7 7 7 8 8 8 7 7 8 8 8 9 7 7 8 8 7 10 11 11 10 10 10 11
11 11 10 11 11 9 10 10 9 9 9 8 7 7 8 7 7 6 6 6 6 5 6 6 7 7 8 9 9 8 7 6 7 6 7 6 12 12 11 10 9 8 9
10 9 9 8 8 8 8 7 8 8 8 7 8 7 8 7 6 5 4 5 6 7 7 7 7 7 9 10 10 8 8 4 7 6 5 6 12 13 13 11 11 9 7
7 7 7 7 8 7 7 7 7 7 8 7 6 6 5 3 4 3 3 4 5 4 5 7 8 9 9 6 9 11 9 4 6 5 4 8 11 13 14 12 10 9 8
10 8 6 6 7 6 4 5 5 5 4 4 4 4 2 2 1 1 2 5 4 6 7 7 7 6 4 4 5 6 5 7 6 7 6 11 12 12 13 13 12 11 11
10 9 9 8 7 5 4 3 2 1 2 2 3 3 2 1 1 1 1 1 3 6 4 5 4 4 5 5 5 5 6 6 5 5 7 14 15 14 14 14 14 13 12
12 11 9 7 5 4 2 1 2 2 2 1 1 1 1 1 0 1 1 4 3 3 4 4 4 4 5 5 5 5 6 6 5 4 6 14 15 15 15 15 16 16 15
11 9 6 6 5 4 4 1 2 2 2 4 3 3 1 1 1 2 3 4 4 4 4 5 4 4 5 5 5 6 6 7 8 5 5 14 15 17 18 19 19 18 17
8 7 8 8 6 7 4 4 3 3 3 2 2 3 6 3 2 3 3 3 4 4 4 3 4 4 4 5 5 6 6 7 7 7 5 6 15 18 19 19 19 20 20
6 8 10 10 9 8 9 7 4 4 3 3 4 4 6 3 4 5 3 4 4 4 3 3 4 3 3 4 6 6 5 7 5 5 5 5 5 11 16 19 20 20 20
8 11 12 10 11 10 7 8 5 5 5 5 6 2 6 4 5 4 4 4 4 3 4 4 5 4 4 5 6 6 5 6 5 1 4 4 5 5 6 16 18 19 20
11 14 13 11 9 9 8 7 5 5 4 4 4 4 5 5 6 5 5 5 4 4 5 5 4 4 4 5 7 6 8 7 4 1 3 4 5 6 6 11 15 15 19
11 12 13 8 9 9 8 7 5 4 3 4 4 5 6 6 6 6 4 4 4 4 4 3 3 3 3 5 7 6 8 5 2 1 4 3 5 6 7 10 10 10 16
12 12 12 11 9 10 9 5 4 3 3 4 5 7 7 7 6 5 4 5 4 4 2 1 1 4 4 6 5 7 6 3 3 2 4 4 6 8 8 10 9 10 10
11 10 10 11 12 9 6 3 2 3 3 5 4 6 7 7 6 6 4 2 1 1 1 3 4 4 3 5 6 7 5 5 3 6 7 6 7 7 9 11 13 13 12
8 9 10 10 8 5 4 4 4 5 4 3 3 3 4 4 4 4 4 1 2 3 2 4 5 6 6 4 5 4 5 5 10 5 9 9 9 9 11 13 14 14 14
7 7 8 8 7 6 5 4 4 3 3 3 3 1 1 3 3 4 2 2 3 3 4 3 3 4 5 6 5 2 5 8 7 10 7 9 9 12 12 10 11 12 14
11 9 8 9 9 8 8 7 6 7 5 3 1 2 4 4 4 4 4 2 3 3 4 4 3 4 3 3 3 4 5 5 7 6 12 10 9 9 8 10 9 8 12
8 9 10 13 12 11 12 11 10 8 5 3 4 5 5 5 5 5 4 3 4 4 3 3 2 1 2 2 2 3 4 5 6 7 9 11 13 11 10 9 9 9 11
Wind_Direction
156 154 142 140 132 124 117 120 117 113 109 107 104 102 98 92 87 84 80 75 72 71 69 68 64 60 55 49 45 42 34 27 19 11 9 10 8 9 18 23 7 32 36
142 155 147 137 132 126 126 128 122 116 113 111 110 101 92 86 81 79 77 78 78 76 70 63 58 55 52 48 44 41 35 28 22 13 10 358 8 359 18 16 20 18 25
139 147 152 137 133 134 134 129 121 116 115 111 102 96 91 92 93 93 86 78 76 72 68 66 63 58 52 48 46 41 35 25 23 17 13 4 8 11 10 16 7 9 7
139 147 153 144 139 140 135 131 128 127 126 118 111 108 106 104 99 92 85 80 79 73 68 62 58 54 51 46 44 39 34 29 20 15 19 7 14 24 11 11 2 1 358
139 150 152 145 142 140 139 138 132 129 126 118 120 121 118 114 109 103 96 88 80 75 72 69 65 62 57 54 48 40 33 29 20 12 20 20 12 11 9 11 8 12 358
139 151 149 139 139 143 143 140 129 131 126 124 126 128 123 113 104 102 93 84 78 73 71 68 68 67 61 50 44 35 29 19 356 25 22 28 33 11 13 21 20 16 1
139 149 150 140 142 143 142 136 132 127 121 121 126 121 112 104 105 104 93 87 84 80 78 74 67 62 51 41 35 32 30 16 7 20 21 16 12 7 15 24 20 13 1
140 148 153 140 137 141 142 128 125 131 134 130 126 123 113 104 102 90 91 85 77 77 80 73 65 57 43 41 34 25 27 18 19 12 2 2 1 356 5 18 29 21 16
148 150 151 157 152 129 129 136 140 145 138 139 133 123 115 122 110 99 77 69 59 48 47 51 42 32 20 13 17 15 22 35 21 13 0 358 355 350 352 353 4 10 7
148 151 156 153 146 146 151 138 155 151 144 147 144 136 130 134 122 106 79 46 36 22 15 13 11 7 6 2 354 358 358 336 7 1 9 8 342 342 343 344 342 347 353
150 151 156 159 165 161 162 160 161 156 155 162 151 134 131 124 120 111 43 4 2 354 358 357 352 345 346 339 343 344 330 351 341 344 341 0 342 341 341 338 333 326 331
168 168 167 169 172 166 160 157 167 160 169 170 162 156 139 121 64 33 359 3 351 359 4 5 359 340 327 349 343 339 345 340 334 335 332 341 332 334 337 339 335 329 323
174 190 187 183 169 163 167 167 141 155 195 149 183 191 154 68 324 8 27 10 19 19 19 13 16 2 356 351 355 356 353 356 360 354 1 355 356 346 339 334 332 332 330
187 199 188 168 143 131 102 142 145 202 227 230 308 358 359 319 65 81 51 43 45 28 14 27 8 352 6 20 16 21 30 21 10 360 13 13 18 16 14 8 1 348 335
198 188 160 127 118 123 94 118 48 351 355 353 342 335 317 241 69 38 48 56 41 32 18 27 14 11 13 20 29 32 31 24 10 4 7 34 43 39 33 27 22 15 3
188 167 126 126 127 127 104 96 71 332 319 86 29 16 330 335 85 88 78 61 39 27 32 24 22 23 21 13 22 16 21 14 8 1 6 52 44 37 31 27 23 17 13
190 141 126 124 115 97 77 47 39 18 12 38 51 11 83 60 88 93 80 55 44 47 48 72 65 56 41 12 14 3 353 3 4 20 20 20 29 46 30 21 14 11 6
145 133 136 129 118 100 100 59 39 36 49 77 75 83 92 91 87 79 75 69 65 59 55 58 36 33 21 2 346 343 339 336 348 50 58 34 26 13 16 13 5 1 358
137 133 130 127 115 109 85 109 90 77 96 118 108 84 78 81 73 83 74 79 81 71 53 41 46 16 10 353 336 330 332 322 330 88 59 40 34 17 1 360 355 349 348
111 120 120 113 107 102 100 108 113 135 113 98 92 87 88 83 77 81 89 82 72 70 61 60 44 41 11 347 323 314 311 298 248 74 360 354 11 1 359 352 340 338 337
115 120 123 119 136 126 135 142 168 151 133 97 84 74 68 64 63 63 64 53 46 53 78 78 5 354 356 359 317 322 298 224 209 314 341 327 346 350 347 345 340 333 325
138 134 141 142 150 149 152 145 137 142 84 82 75 68 61 65 61 65 64 70 111 256 319 17 9 352 347 21 338 304 310 289 292 312 325 329 337 337 335 335 331 324 321
134 134 134 135 142 128 105 113 99 94 110 131 86 71 56 108 146 159 177 250 321 318 21 43 22 6 353 10 22 331 314 304 325 285 310 317 321 325 326 331 325 327 319
113 112 113 109 98 73 51 78 85 71 92 62 87 136 240 340 323 320 343 350 25 78 89 79 62 38 360 343 329 331 307 304 303 302 299 310 315 318 325 326 323 331 328
140 124 101 85 78 76 77 79 79 75 82 101 125 314 325 312 296 308 302 335 132 133 118 110 100 64 44 351 334 316 304 305 290 305 302 315 309 311 311 319 327 324 327
109 113 111 104 89 84 78 74 78 82 80 40 359 336 328 304 308 306 273 206 153 133 131 108 113 121 234 247 280 284 310 317 315 303 300 311 308 313 319 308 318 317 315